{"data":{"norad_id":58854,"epoch":"2026-05-25T02:58:56.980704Z","epoch_age_seconds":75060,"freshness":"FRESH","line1":"1 58854U 24019B   26145.12427061  .00000249  00000+0  18570-4 0  9996","line2":"2 58854  42.9996 177.1228 0001215 258.1091 101.9624 15.27575194130771","mean_motion":15.27575194,"eccentricity":0.0001215,"inclination_deg":42.9996,"raan_deg":177.1228,"arg_perigee_deg":258.1091,"mean_anomaly_deg":101.9624,"bstar":1.857e-5,"rev_number":13077,"period_min":94.267045292174,"perigee_km":482.22985111117,"apogee_km":483.8971228295,"semimajor_km":6861.2004869703,"source":"CELESTRAK","updated_at":"2026-05-25T13:38:18.757488Z"}}